This demonstration page uses our WeatherBlox Daily Observations layout. Learn more.

Left ArrowRight Arrow

36.19886, -115.1175

Hourly Observations for April 28, 2023

Temp ( °F °C ) Dew Point ( °F °C ) Humidity (%) Winds ( mph kmh ) Pressure ( in mb ) Visibility ( mi km ) Precip ( " mm )
12:53 am 00:53 Clear 77 25 21 -6.1 12 12 NW 10 17 29.84 1011 10 16 0.00 0.00
1:53 am 01:53 Clear 77 25 21 -6.1 12 12 N 13 20 29.85 1011 10 16 0.00 0.00
2:53 am 02:53 Clear 75 23.9 20 -6.7 12 12 NW 13 20 29.87 1011 10 16 0.00 0.00
3:53 am 03:53 Clear 75 23.9 21 -6.1 13 13 NNW 12 19 29.88 1012 10 16 0.00 0.00
4:53 am 04:53 Clear 75 23.9 23 -5 14 14 N 7 11 29.91 1013 10 16 0.00 0.00
5:53 am 05:53 Sunny 73 22.8 24 -4.4 16 16 NNW 8 13 29.95 1014 10 16 0.00 0.00
6:53 am 06:53 Sunny 73 22.8 25 -3.9 16 16 Calm 29.98 1015 10 16 0.00 0.00
7:53 am 07:53 Sunny 77 25 26 -3.3 15 15 Calm 30.01 1016 10 16 0.00 0.00
8:53 am 08:53 Sunny 79 26.1 28 -2.2 15 15 SSW 7 11 30.03 1017 10 16 0.00 0.00
9:53 am 09:53 Sunny 83 28.3 25 -3.9 12 12 ENE 21 33 30.04 1017 10 16 0.00 0.00
10:53 am 10:53 Sunny 83 28.3 26 -3.3 12 12 ENE 21 33 30.04 1017 10 16 0.00 0.00
11:53 am 11:53 Sunny 86 30 24 -4.4 10 10 ENE 16 26 30.04 1017 10 16 0.00 0.00
12:53 pm 12:53 Sunny 87 30.6 23 -5 10 10 VRB 5 7 30.01 1016 10 16 0.00 0.00
1:53 pm 13:53 Sunny 89 31.7 22 -5.6 9 9 E 14 22 29.99 1016 10 16 0.00 0.00
2:53 pm 14:53 Sunny 89 31.7 22 -5.6 9 9 E 13 20 29.98 1015 10 16 0.00 0.00
3:53 pm 15:53 Sunny 90 32.2 20 -6.7 8 8 ESE 8 13 29.96 1015 10 16 0.00 0.00
4:53 pm 16:53 Sunny 90 32.2 15 -9.4 6 6 E 13 20 29.95 1014 10 16 0.00 0.00
5:53 pm 17:53 Sunny 89 31.7 17 -8.3 7 7 SE 6 9 29.95 1014 10 16 0.00 0.00
6:53 pm 18:53 Sunny 88 31.1 17 -8.3 7 7 Calm 29.95 1014 10 16 0.00 0.00
7:53 pm 19:53 Clear 86 30 17 -8.3 8 8 NE 5 7 29.96 1014 10 16 0.00 0.00
8:53 pm 20:53 Clear 81 27.2 19 -7.2 10 10 N 5 7 29.98 1015 10 16 0.00 0.00
9:53 pm 21:53 Clear 79 26.1 25 -3.9 14 14 W 6 9 30.00 1016 10 16 0.00 0.00
10:53 pm 22:53 Clear 74 23.3 25 -3.9 16 16 NNW 8 13 29.99 1016 10 16 0.00 0.00
11:53 pm 23:53 Clear 73 22.8 23 -5 15 15 NNW 3 6 30.01 1016 10 16 0.00 0.00

Powered by Vaisala Xweather